Bennett, CO

10:16 PM MDT on September 30, 2016 (GMT -0600)
Front Range

Weather History for KFTG - September, 2013

Change the Weather History Date:

Tuesday, September 3, 2013

  Actual Average (KDEN) Record (KDEN)
Temperature  
Mean Temperature 82 °F 68 °F  
Max Temperature 95 °F 83 °F 95 °F (1960)
Min Temperature 68 °F 53 °F 33 °F (1961)
Degree Days  
Heating Degree Days 0 1  
Month to date heating degree days 3  
Since 1 July heating degree days 19  
Cooling Degree Days 16 5  
Month to date cooling degree days 15  
Year to date cooling degree days 703  
Growing Degree Days 32 (Base 50)    
Moisture  
Dew Point 51 °F    
Average Humidity 46    
Maximum Humidity 60    
Minimum Humidity 16    
Precipitation  
Precipitation 0.00 in 0.03 in 1.00 in (1961)
Month to date precipitation 0.09  
Year to date precipitation 11.45  
Snow  
Snow 0.00 in - - ()
Month to date snowfall  
Since 1 July snowfall  
Since 1 September snowfall  
Snow Depth -    
Sea Level Pressure  
Sea Level Pressure 30.16 in    
Wind  
Wind Speed 9 mph (SW)    
Max Wind Speed 15 mph    
Max Gust Speed 18 mph    
Visibility 10 miles    
Events Thunderstorm    
T = Trace of Precipitation, MM = Missing Value Source: NWS Daily Summary

Daily Weather History Graph

Daily Weather History Graph

Search for Another Location

Airport or City:

Trip Planner

Search our weather history database for the weather conditions in past years. The results will help you decide how hot, cold, wet, or windy it might be!

Date:

Astronomy

Sep. 03, 2013 Rise Set
Actual Time 6:28 AM MDT 7:25 PM MDT
Civil Twilight 6:00 AM MDT 7:53 PM MDT
Nautical Twilight 5:27 AM MDT 8:25 PM MDT
Astronomical Twilight 4:53 AM MDT 8:59 PM MDT
Moon 4:44 AM MDT (9/3) 6:14 PM MDT (9/3)
Length of Visible Light 13h 52m
Length of Day
12h 57m
Waning Crescent, 3% of the Moon is Illuminated
Sep 3
Waning Crescent
Sep 5
New
Sep 12
First Quarter
Sep 19
Full
Sep 26
Last Quarter

Hourly Weather History & Observations

Time (MDT) Temp. Dew Point Humidity Pressure Visibility Wind Dir Wind Speed Gust Speed Precip Events Conditions
12:17 AM 73.4 °F 53.6 °F 50% 30.14 in 10.0 mi SSE 11.5 mph - N/A   Clear
12:37 AM 73.4 °F 53.6 °F 50% 30.14 in 10.0 mi South 11.5 mph - N/A   Clear
12:57 AM 71.6 °F 53.6 °F 53% 30.14 in 10.0 mi South 11.5 mph - N/A   Clear
1:17 AM 71.6 °F 53.6 °F 53% 30.14 in 10.0 mi South 10.4 mph - N/A   Clear
1:37 AM 69.8 °F 55.4 °F 60% 30.13 in 10.0 mi South 10.4 mph - N/A   Clear
1:57 AM 69.8 °F 55.4 °F 60% 30.13 in 10.0 mi South 9.2 mph - N/A   Clear
2:17 AM 69.8 °F 55.4 °F 60% 30.12 in 10.0 mi South 8.1 mph - N/A   Clear
2:37 AM 69.8 °F 53.6 °F 56% 30.12 in 10.0 mi South 6.9 mph - N/A   Clear
2:57 AM 71.6 °F 53.6 °F 53% 30.12 in 10.0 mi SSW 8.1 mph - N/A   Clear
3:17 AM 71.6 °F 51.8 °F 50% 30.12 in 10.0 mi SW 9.2 mph - N/A   Clear
3:37 AM 71.6 °F 51.8 °F 50% 30.13 in 10.0 mi SW 5.8 mph - N/A   Clear
3:57 AM 69.8 °F 51.8 °F 53% 30.13 in 10.0 mi WSW 8.1 mph - N/A   Clear
4:17 AM 69.8 °F 51.8 °F 53% 30.13 in 10.0 mi WSW 9.2 mph - N/A   Clear
4:37 AM 69.8 °F 51.8 °F 53% 30.14 in 10.0 mi Calm Calm - N/A   Clear
4:57 AM 69.8 °F 51.8 °F 53% 30.15 in 10.0 mi WNW 4.6 mph - N/A   Clear
5:17 AM 68.0 °F 53.6 °F 60% 30.15 in 10.0 mi WSW 8.1 mph - N/A   Clear
5:37 AM 68.0 °F 53.6 °F 60% 30.16 in 10.0 mi West 6.9 mph - N/A   Clear
5:57 AM 68.0 °F 53.6 °F 60% 30.16 in 10.0 mi West 9.2 mph - N/A   Clear
6:17 AM 68.0 °F 53.6 °F 60% 30.16 in 10.0 mi West 10.4 mph - N/A   Clear
6:36 AM 68.0 °F 53.6 °F 60% 30.16 in 10.0 mi West 9.2 mph - N/A   Clear
6:53 AM 68.0 °F 51.8 °F 56% 30.18 in 10.0 mi West 9.2 mph - N/A   Clear
7:50 AM 71.6 °F 55.4 °F 57% 30.19 in 50.0 mi WSW 10.4 mph - N/A   Mostly Cloudy
11:51 AM 91.4 °F 48.2 °F 23% 30.20 in 50.0 mi NNE 15.0 mph 18.4 mph N/A   Partly Cloudy
1:50 PM 93.2 °F 48.2 °F 21% 30.18 in 50.0 mi ENE 6.9 mph 16.1 mph N/A   Mostly Cloudy
2:50 PM 93.2 °F 46.4 °F 20% 30.15 in 50.0 mi ESE 8.1 mph - N/A   Mostly Cloudy
4:48 PM 95.0 °F 42.8 °F 16% 30.14 in 30.0 mi ENE 8.1 mph - N/A   Mostly Cloudy
5:48 PM 91.4 °F 42.8 °F 18% 30.14 in 30.0 mi East 9.2 mph - N/A   Mostly Cloudy
6:55 PM 87.8 °F 46.4 °F 24% 30.14 in 30.0 mi SSE 4.6 mph - N/A   Mostly Cloudy
7:48 PM 84.2 °F 46.4 °F 27% 30.14 in 30.0 mi SSE 5.8 mph - N/A   Mostly Cloudy
8:57 PM 78.8 °F 51.8 °F 39% 30.16 in 10.0 mi WSW 11.5 mph - N/A Thunderstorm Scattered Clouds
9:18 PM 78.8 °F 51.8 °F 39% 30.18 in 10.0 mi WSW 9.2 mph - N/A   Scattered Clouds
9:38 PM 77.0 °F 51.8 °F 41% 30.19 in 10.0 mi West 6.9 mph - N/A   Mostly Cloudy
9:56 PM 75.2 °F 51.8 °F 44% 30.19 in 10.0 mi NW 10.4 mph - N/A   Mostly Cloudy
10:17 PM 77.0 °F 50.0 °F 39% 30.19 in 10.0 mi WNW 10.4 mph - N/A   Clear
10:36 PM 73.4 °F 50.0 °F 44% 30.20 in 10.0 mi NW 9.2 mph - N/A   Clear
10:57 PM 73.4 °F 50.0 °F 44% 30.21 in 10.0 mi WNW 3.5 mph - N/A   Clear
11:16 PM 73.4 °F 50.0 °F 44% 30.21 in 10.0 mi SE 4.6 mph - N/A   Clear
11:36 PM 69.8 °F 50.0 °F 49% 30.21 in 10.0 mi SSE 5.8 mph - N/A   Clear
11:57 PM 71.6 °F 50.0 °F 46% 30.21 in 10.0 mi South 4.6 mph - N/A   Clear